Regional Weather Roundup
Issued by NWS

Home | Current Version | Previous Version | Text Only | Print | Product List | Glossary Off
Versions: 1 2 3 4 5 6 7 8 9 10 11 12 13 14 15 16 17 18 19 20 21 22 23 24 25 26 27 28 29 30 31 32 33 34 35 36 37 38 39 40 41 42 43 44 45 46 47 48 49 50

769
ASUS43 KLOT 031803
RWRIL

ILLINOIS REGIONAL WEATHER ROUNDUP
NATIONAL WEATHER SERVICE CHICAGO/ROMEOVILLE IL
100 PM CDT TUE MAY 03 2016

NOTE: "FAIR" INDICATES FEW OR NO CLOUDS BELOW 12,000 FEET WITH NO
SIGNIFICANT WEATHER AND/OR OBSTRUCTIONS TO VISIBILITY.

* THESE STATIONS ARE NOT UNDER NWS QUALITY CONTROL. THEY ALSO MAY NOT
  REPORT WEATHER SUCH AS PRECIPITATION OR FOG.

ILZ001-002-007-009-015-016-024-031900-
NORTHWEST ILLINOIS

CITY           SKY/WX    TMP DP  RH WIND       PRES   REMARKS
MOLINE         PTSUNNY   65  38  36 W14       29.95F
6HR MIN TEMP:  41; 6HR MAX TEMP:  69;

STERLING*      MOSUNNY   64  41  42 W13       29.93F
$$

ILZ003-004-008-010-011-017-018-031900-
NORTH CENTRAL ILLINOIS

CITY           SKY/WX    TMP DP  RH WIND       PRES   REMARKS
ROCKFORD       PTSUNNY   65  40  39 W13G21    29.92F
6HR MIN TEMP:  42; 6HR MAX TEMP:  68;

FREEPORT*      PTSUNNY   62  38  40 W13       29.93F
ROCHELLE*      MOSUNNY   64  43  46 W10       29.92F
DE KALB*       CLOUDY    62  41  46 NW10G18   29.92F
$$

ILZ005-006-012>014-019>023-031900-
NORTHEAST ILLINOIS

CITY           SKY/WX    TMP DP  RH WIND       PRES   REMARKS
CHICAGO-OHARE  PTSUNNY   63  38  39 W7        29.89F
6HR MIN TEMP:  47; 6HR MAX TEMP:  65;

CHICAGO-MIDWAY PTSUNNY   65  37  35 W7        29.90F
6HR MIN TEMP:  47; 6HR MAX TEMP:  67;

AURORA         CLOUDY    64  41  42 NW10      29.92F
6HR MIN TEMP:  40; 6HR MAX TEMP:  66;

LANSING*       MOSUNNY   65  38  37 W6        29.91F
WAUKEGAN       CLOUDY    64  36  35 W7        29.87F
6HR MIN TEMP:  46; 6HR MAX TEMP:  66;

DUPAGE AIRPORT CLOUDY    63  39  41 NW9       29.90F
6HR MIN TEMP:  39; 6HR MAX TEMP:  65;

WHEELING       CLOUDY    63  38  39 W6        29.90F
6HR MIN TEMP:  41; 6HR MAX TEMP:  65;

NORTHERLY ISL    N/A     56  41  57 SE9         N/A
NORTHERLY ISL    N/A     56  41  57 SE9         N/A
$$

LMZ740>746-031900-
SOUTHERN LAKE MICHIGAN

STATION/POSITION SKY/WX   TEMP    WIND        PRES    VSBY  WAVE
                          AIR SEA DIR/SP/G                  HT/PER
                          (F)     (DEG/KT/KT) (MB)    (MI)  (FT/S)
SOUTHERN BUOY              44 42  190/ 10/ 10 1012.7          0
HARRISON CRIB              59     140/ 12/ 12   N/A
BURNHAM HARBOR             55     130/  6/ 12   N/A
CALUMET HARBOR             58      80/  8/  9 1012.8F
BURNS HARBOR               55      CALM  /  2 1014.2F
MICHIGAN CITY              51     230/  3/  3   N/A
ST. JOSEPH                 48 49                N/A           1
$$

ILZ025>027-034>036-040-047-049-050-058-095>099-031900-
WEST-CENTRAL ILLINOIS

CITY           SKY/WX    TMP DP  RH WIND       PRES   REMARKS
QUINCY         SUNNY     63  42  46 NW8       30.01F
MACOMB*        MOSUNNY   65  38  37 NW6       30.01F
PITTSFIELD*    CLOUDY    61  42  49 NW6       30.02F
$$

ILZ028>032-037-038-041>044-048-051>054-059>061-031900-
CENTRAL ILLINOIS

CITY           SKY/WX    TMP DP  RH WIND       PRES   REMARKS
BLOOMINGTON    PTSUNNY   64  43  46 N10       29.96F
DECATUR        PTSUNNY   63  42  46 N10       29.97F
PEORIA         PTSUNNY   66  40  38 VRB6      29.96F
6HR MIN TEMP:  46; 6HR MAX TEMP:  66;

SPRINGFIELD    MOSUNNY   64  41  42 W9        29.99F
6HR MIN TEMP:  48; 6HR MAX TEMP:  65;

TAYLORVILLE    NOT AVBL
$$

ILZ033-039-045-046-055>057-062-063-031900-
EAST-CENTRAL ILLINOIS

CITY           SKY/WX    TMP DP  RH WIND       PRES   REMARKS
CHAMPAIGN      PTSUNNY   64  40  41 NW10      29.95F
MATTOON        MOSUNNY   63  41  44 N12G17    29.96F
$$

ILZ079-100>102-031900-
SOUTHWEST ILLINOIS

CITY           SKY/WX    TMP DP  RH WIND       PRES   REMARKS
ALTON          CLOUDY    59  43  55 N9        30.02F
BELLEVILLE     PTSUNNY   61  43  51 W5        30.00F
CAHOKIA*       CLOUDY    63  42  46 N6        30.01F
SPARTA*        CLOUDY    59  43  54 NW5       30.02F
$$

ILZ064>066-069>071-074>076-080>082-084>086-088>090-092>094-031900-
SOUTH-CENTRAL ILLINOIS

CITY           SKY/WX    TMP DP  RH WIND       PRES   REMARKS
CARBONDALE     CLOUDY    62  44  51 N8        30.00F
6HR MIN TEMP:  52; 6HR MAX TEMP:  63;

MARION         CLOUDY    63  43  48 NW9       30.01F
MT. VERNON     CLOUDY    61  39  44 N5        30.01S
SALEM*         PTSUNNY   62  43  49 NW10      29.99F
$$

ILZ067-068-072-073-078-083-087-091-031900-
SOUTHEAST ILLINOIS

CITY           SKY/WX    TMP DP  RH WIND       PRES   REMARKS
LAWRENCEVILLE  CLOUDY    59  45  59 NW7       29.97F
FLORA*         PTSUNNY   61  42  49 NW7       29.99F
HARRISBURG*    PTSUNNY   63  44  50 NW10      30.00F
ROBINSON*      CLOUDY    58  45  61 NW6       29.97F
$$

ABBREVIATIONS USED IN REMARKS
   TC - TEMPERATURE IN CELSIUS
  WCI - WIND CHILL INDEX
   HX - HEAT INDEX
  VSB - VISIBILITY
$$





USA.gov is the U.S. government's official web portal to all federal, state and local government web resources and services.